Weather History for KFFA - November, 2013

Change the Weather History Date:

Monday, November 4, 2013

  Actual Average (KMQI) Record (KMQI)
Temperature  
Mean Temperature 52 °F -  
Max Temperature 56 °F 63 °F 80 °F (2003)
Min Temperature 49 °F 51 °F 34 °F (1976)
Degree Days  
Heating Degree Days 12    
Growing Degree Days 2 (Base 50)    
Moisture  
Dew Point 38 °F    
Average Humidity 60    
Maximum Humidity 75    
Minimum Humidity 40    
Precipitation  
Precipitation 0.00 in - - ()
Sea Level Pressure  
Sea Level Pressure 30.44 in    
Wind  
Wind Speed 10 mph (NNE)    
Max Wind Speed 14 mph    
Max Gust Speed 23 mph    
Visibility 10 miles    
Events      
Averages and records for this station are not official NWS values.
T = Trace of Precipitation, MM = Missing Value Source: NWS Daily Summary

Daily Weather History Graph

Daily Weather History Graph

Search for Another Location

Airport or City:

Trip Planner

Search our weather history database for the weather conditions in past years. The results will help you decide how hot, cold, wet, or windy it might be!

Date:

Astronomy

Nov. 04, 2013 Rise Set
Actual Time 6:28 AM EST 5:03 PM EST
Civil Twilight 6:01 AM EST 5:30 PM EST
Nautical Twilight 5:31 AM EST 6:00 PM EST
Astronomical Twilight 5:01 AM EST 6:30 PM EST
Moon 7:34 AM EST (11/4) 6:08 PM EST (11/4)
Length of Visible Light 11h 28m
Length of Day
10h 35m
New Moon, 2% of the Moon is Illuminated
Nov 4
New Moon
Nov 10
First Quarter
Nov 17
Full
Nov 25
Last Quarter
Dec 2
New

Hourly Weather History & Observations

Time (EST) Temp. Dew Point Humidity Pressure Visibility Wind Dir Wind Speed Gust Speed Precip Events Conditions
12:15 AM 51.3 °F 27.7 °F 40% 30.33 in 10.0 mi NNE 8.1 mph - N/A   Clear
12:35 AM 51.4 °F 30.0 °F 44% 30.33 in 10.0 mi NNE 8.1 mph 17.3 mph N/A   Clear
12:55 AM 51.6 °F 32.9 °F 49% 30.34 in 10.0 mi NNE 9.2 mph - N/A   Mostly Cloudy
1:15 AM 51.4 °F 32.4 °F 48% 30.34 in 10.0 mi North 10.4 mph 18.4 mph N/A   Scattered Clouds
1:35 AM 51.3 °F 29.5 °F 43% 30.35 in 10.0 mi NNE 9.2 mph 16.1 mph N/A   Scattered Clouds
1:55 AM 51.1 °F 30.0 °F 44% 30.35 in 10.0 mi NNE 9.2 mph - N/A   Clear
2:15 AM 51.4 °F 31.3 °F 46% 30.35 in 10.0 mi NNE 9.2 mph 17.3 mph N/A   Scattered Clouds
2:35 AM 51.4 °F 32.4 °F 48% 30.35 in 10.0 mi NNE 9.2 mph 18.4 mph N/A   Scattered Clouds
2:55 AM 51.4 °F 32.0 °F 47% 30.35 in 10.0 mi NNE 6.9 mph 18.4 mph N/A   Scattered Clouds
3:15 AM 51.1 °F 31.1 °F 46% 30.35 in 10.0 mi NNE 9.2 mph 18.4 mph N/A   Scattered Clouds
3:35 AM 51.1 °F 31.3 °F 47% 30.36 in 10.0 mi NE 9.2 mph 18.4 mph N/A   Scattered Clouds
3:55 AM 50.9 °F 31.1 °F 47% 30.37 in 10.0 mi NNE 12.7 mph 18.4 mph N/A   Scattered Clouds
4:15 AM 50.9 °F 30.9 °F 46% 30.39 in 10.0 mi NNE 9.2 mph 19.6 mph N/A   Scattered Clouds
4:35 AM 50.9 °F 31.3 °F 47% 30.39 in 10.0 mi North 9.2 mph 20.7 mph N/A   Scattered Clouds
4:55 AM 51.1 °F 32.7 °F 50% 30.40 in 10.0 mi NNE 9.2 mph 18.4 mph N/A   Overcast
5:15 AM 50.9 °F 33.4 °F 51% 30.41 in 10.0 mi NNE 10.4 mph 21.9 mph N/A   Overcast
5:35 AM 50.7 °F 33.6 °F 52% 30.42 in 10.0 mi North 10.4 mph 20.7 mph N/A   Mostly Cloudy
5:55 AM 50.0 °F 32.9 °F 52% 30.42 in 10.0 mi NNE 9.2 mph 19.6 mph N/A   Overcast
6:15 AM 49.6 °F 33.6 °F 54% 30.42 in 10.0 mi NNE 13.8 mph 21.9 mph N/A   Mostly Cloudy
6:35 AM 49.3 °F 33.3 °F 54% 30.42 in 10.0 mi NE 10.4 mph 20.7 mph N/A   Mostly Cloudy
6:55 AM 49.3 °F 33.8 °F 55% 30.43 in 10.0 mi NNE 11.5 mph 18.4 mph N/A   Mostly Cloudy
7:15 AM 49.1 °F 33.6 °F 55% 30.45 in 10.0 mi NNE 8.1 mph 19.6 mph N/A   Overcast
7:35 AM 49.1 °F 33.4 °F 55% 30.46 in 10.0 mi NNE 8.1 mph 23.0 mph N/A   Mostly Cloudy
7:55 AM 49.1 °F 33.8 °F 56% 30.47 in 10.0 mi NNE 12.7 mph 19.6 mph N/A   Mostly Cloudy
8:15 AM 49.6 °F 33.6 °F 54% 30.46 in 10.0 mi North 12.7 mph 19.6 mph N/A   Mostly Cloudy
8:35 AM 50.0 °F 34.0 °F 54% 30.45 in 10.0 mi NNE 5.8 mph 20.7 mph N/A   Mostly Cloudy
8:55 AM 50.4 °F 34.5 °F 55% 30.46 in 10.0 mi NNE 10.4 mph 20.7 mph N/A   Scattered Clouds
9:15 AM 50.0 °F 34.3 °F 55% 30.46 in 10.0 mi North 10.4 mph 19.6 mph N/A   Scattered Clouds
9:35 AM 50.2 °F 33.8 °F 53% 30.46 in 10.0 mi North 12.7 mph 20.7 mph N/A   Scattered Clouds
9:55 AM 50.5 °F 33.4 °F 52% 30.47 in 10.0 mi NNE 11.5 mph 19.6 mph N/A   Scattered Clouds
10:15 AM 51.1 °F 34.3 °F 53% 30.48 in 10.0 mi NNE 10.4 mph 17.3 mph N/A   Scattered Clouds
10:35 AM 52.0 °F 35.2 °F 53% 30.48 in 10.0 mi NNE 9.2 mph 16.1 mph N/A   Mostly Cloudy
10:55 AM 52.2 °F 36.7 °F 56% 30.48 in 10.0 mi NNE 9.2 mph 17.3 mph N/A   Mostly Cloudy
11:15 AM 52.5 °F 36.5 °F 54% 30.48 in 10.0 mi NNE 9.2 mph 19.6 mph N/A   Overcast
11:35 AM 53.1 °F 36.9 °F 54% 30.48 in 10.0 mi NNE 9.2 mph 18.4 mph N/A   Overcast
11:55 AM 52.7 °F 36.9 °F 55% 30.48 in 10.0 mi North 6.9 mph - N/A   Overcast
12:15 PM 52.9 °F 37.8 °F 56% 30.47 in 10.0 mi North 8.1 mph 18.4 mph N/A   Overcast
12:35 PM 52.3 °F 38.1 °F 58% 30.46 in 10.0 mi NNE 11.5 mph 18.4 mph N/A   Overcast
12:55 PM 52.7 °F 37.4 °F 56% 30.46 in 10.0 mi NNE 8.1 mph 17.3 mph N/A   Overcast
1:15 PM 52.7 °F 36.9 °F 55% 30.46 in 10.0 mi NNE 10.4 mph - N/A   Overcast
1:35 PM 52.7 °F 37.6 °F 56% 30.46 in 10.0 mi NNE 10.4 mph - N/A   Overcast
1:55 PM 53.2 °F 37.9 °F 56% 30.45 in 10.0 mi NNE 9.2 mph 19.6 mph N/A   Mostly Cloudy
2:15 PM 54.0 °F 37.9 °F 55% 30.45 in 10.0 mi NNE 6.9 mph 17.3 mph N/A   Scattered Clouds
2:35 PM 54.0 °F 39.0 °F 57% 30.45 in 10.0 mi North 8.1 mph 17.3 mph N/A   Clear
2:55 PM 54.1 °F 40.1 °F 59% 30.45 in 10.0 mi North 9.2 mph - N/A   Scattered Clouds
3:15 PM 54.1 °F 41.9 °F 63% 30.45 in 10.0 mi North 8.1 mph 16.1 mph N/A   Scattered Clouds
3:35 PM 54.1 °F 43.5 °F 67% 30.46 in 10.0 mi North 9.2 mph 21.9 mph N/A   Mostly Cloudy
3:55 PM 53.6 °F 43.9 °F 70% 30.47 in 10.0 mi North 11.5 mph 17.3 mph N/A   Mostly Cloudy
4:15 PM 53.2 °F 44.2 °F 72% 30.46 in 10.0 mi NNE 9.2 mph 19.6 mph N/A   Overcast
4:35 PM 53.2 °F 44.6 °F 72% 30.46 in 10.0 mi NNE 9.2 mph 19.6 mph N/A   Overcast
4:55 PM 52.9 °F 44.6 °F 73% 30.46 in 10.0 mi NNE 11.5 mph 20.7 mph N/A   Mostly Cloudy
5:15 PM 52.7 °F 44.4 °F 73% 30.47 in 10.0 mi NNE 12.7 mph 19.6 mph N/A   Mostly Cloudy
5:35 PM 52.7 °F 44.6 °F 74% 30.47 in 10.0 mi NNE 13.8 mph 23.0 mph N/A   Overcast
5:55 PM 52.9 °F 44.8 °F 74% 30.47 in 10.0 mi North 11.5 mph 21.9 mph N/A   Overcast
6:15 PM 53.1 °F 44.8 °F 73% 30.47 in 10.0 mi NNE 10.4 mph 20.7 mph N/A   Overcast
6:35 PM 52.9 °F 44.8 °F 74% 30.47 in 10.0 mi NNE 11.5 mph 19.6 mph N/A   Overcast
6:55 PM 53.1 °F 44.8 °F 73% 30.47 in 10.0 mi NNE 11.5 mph 19.6 mph N/A   Overcast
7:15 PM 53.1 °F 44.8 °F 73% 30.48 in 10.0 mi NNE 13.8 mph 18.4 mph N/A   Overcast
7:35 PM 53.2 °F 44.8 °F 73% 30.47 in 10.0 mi NE 8.1 mph 18.4 mph N/A   Overcast
7:55 PM 53.6 °F 45.3 °F 74% 30.48 in 10.0 mi NNE 11.5 mph 18.4 mph N/A   Overcast
8:15 PM 53.8 °F 45.7 °F 74% 30.48 in 10.0 mi NNE 10.4 mph - N/A   Overcast
8:35 PM 53.8 °F 45.5 °F 74% 30.48 in 10.0 mi NNE 10.4 mph 18.4 mph N/A   Overcast
8:55 PM 54.1 °F 45.9 °F 74% 30.48 in 10.0 mi NE 10.4 mph 19.6 mph N/A   Overcast
9:15 PM 54.5 °F 46.2 °F 74% 30.48 in 10.0 mi NE 12.7 mph 19.6 mph N/A   Overcast
9:35 PM 54.5 °F 46.4 °F 74% 30.48 in 10.0 mi NNE 11.5 mph 19.6 mph N/A   Mostly Cloudy
9:55 PM 54.5 °F 46.4 °F 74% 30.48 in 10.0 mi NNE 8.1 mph 19.6 mph N/A   Mostly Cloudy
10:15 PM 54.7 °F 46.8 °F 75% 30.48 in 10.0 mi NNE 10.4 mph 18.4 mph N/A   Mostly Cloudy
10:35 PM 55.0 °F 46.9 °F 74% 30.48 in 10.0 mi NNE 13.8 mph 18.4 mph N/A   Mostly Cloudy
10:55 PM 55.4 °F 47.1 °F 74% 30.46 in 10.0 mi NE 11.5 mph 17.3 mph N/A   Scattered Clouds
11:15 PM 55.4 °F 46.9 °F 73% 30.46 in 10.0 mi NNE 9.2 mph 19.6 mph N/A   Clear
11:35 PM 56.1 °F 47.1 °F 72% 30.47 in 10.0 mi NE 11.5 mph 18.4 mph N/A   Clear
11:55 PM 56.3 °F 46.8 °F 70% 30.47 in 10.0 mi NE 11.5 mph 18.4 mph N/A   Scattered Clouds